Back to catalog

FENGYUN 1C DEB

AliveSSO
NORAD 30895·DEBRIS·🇨🇳 China

Launched May 10, 1999 from Taiyuan Satellite Launch Center

Loading…

Next Passes (next 24 hours)

TLE

FreshSource: Space-Track

Epoch: Sep 14, 2026, 10:21 UTC

1 30895U 99025AYH 26257.43180762  .00000451  00000-0  14450-3 0  9990
2 30895  98.6901 331.8924 0216191  33.7760  23.5546 14.32080044 17320

Track FENGYUN 1C DEB in real time with AllMySat

Download on the App Store